Regional Weather Roundup
Issued by NWS

Home | Current Version | Previous Version | Graphics & Text | Print | Product List | Glossary On
Versions: 1 2 3 4 5 6 7 8 9 10 11 12 13 14 15 16 17 18 19 20 21 22 23 24 25 26 27 28 29 30 31 32 33 34 35 36 37 38 39 40 41 42 43 44 45 46 47 48 49 50
000
ASUS43 KFSD 270402
RWRSD

WEATHER ROUNDUP FOR SOUTH DAKOTA
NATIONAL WEATHER SERVICE SIOUX FALLS SD
1100 PM CDT THU MAR 26 2015

NOTE: "FAIR" INDICATES FEW OR NO CLOUDS BELOW 12,000 FEET WITH NO
SIGNIFICANT WEATHER AND/OR OBSTRUCTIONS TO VISIBILITY.


SDZ001>005-009-010-012>017-270500-
NORTHWEST AND NORTH CENTRAL SOUTH DAKOTA

CITY           SKY/WX    TMP DP  RH WIND       PRES   REMARKS
BUFFALO          N/A     35  32  88 SE10      30.09S WCI  27
FAITH            N/A     32  27  81 S7        30.20S WCI  26
MOBRIDGE       CLOUDY    30  16  56 E9        30.22R WCI  22
$$

SDZ012>016-024>037-041>051-057-063-072>074-270500-
SOUTHWEST AND SOUTH CENTRAL SOUTH DAKOTA

CITY           SKY/WX    TMP DP  RH WIND       PRES   REMARKS
RAPID CTY ARPT CLOUDY    34  27  75 SE10      30.17R WCI  26
PIERRE         MOCLDY    30  27  88 CALM      30.23S
CUSTER         LGT SNOW  33  28  81 S3        30.12R VSB 1
ELLSWORTH AFB  MIX PCPN  34  28  80 SE12      30.16R WCI  25
PHILIP         CLOUDY    32  25  75 E3        30.22S
PINE RIDGE     CLOUDY    39  29  67 E7        30.16S
SPEARFISH      MOCLDY    41  34  75 W5        30.13S
WINNER         CLOUDY    33  29  85 SW3       30.24S
$$

SDZ004>011-016>023-039-040-270500-
NORTHEAST SOUTH DAKOTA

CITY           SKY/WX    TMP DP  RH WIND       PRES   REMARKS
ABERDEEN       CLEAR     22  13  68 NE7       30.29R WCI  13
WATERTOWN      CLEAR     19  11  70 N7        30.24R WCI  10
SISSETON         N/A     22  16  78 N9        30.28S WCI  12
$$

SDZ017-020-022-023-036>040-048>070-270500-
SOUTHEAST SOUTH DAKOTA

CITY           SKY/WX    TMP DP  RH WIND       PRES   REMARKS
SIOUX FALLS    PTCLDY    25  16  68 N10       30.24R WCI  15
HURON          CLEAR     21  12  68 NE7       30.27R WCI  12
MITCHELL       CLEAR     24  15  68 NE6       30.27R WCI  17
YANKTON        CLEAR     28  18  64 N8        30.26R WCI  20
$$

ABBREVIATIONS USED IN REMARKS
   TC - TEMPERATURE IN CELSIUS
  WCI - WIND CHILL INDEX
   HX - HEAT INDEX
  VSB - VISIBILITY



USA.gov is the U.S. government's official web portal to all federal, state and local government web resources and services.